Reepham, United Kingdom
Current Conditions -  °F | °C
As of 5:50 AM on Monday 22 Dec 2014 (Local Time) from EGXW Reporting Station
Broken Clouds Broken Clouds  
Wind Chill: 55°   Ceiling: 2000
Heat Index: 55°   Visibility: 6mi
Dew Point: 48°   Wind: 28mph
Humidity: 77%   Direction: 240°WSW
Pressure: 29.83"   Gusts: 43mph
Location:  53.23°N, 0.43°W
Report Text: EGXW 220550Z 24024G37KT 9999 BKN020 13/09 Q1010 WHT
Loading
Personal Weather Stations






























Interactive Weather Map New forecast layout! Learn more

10-Day Weather Forecast

Advertisements
Track Severe Weather on mobile